カタログに戻る

CBERS 4A

運用中科学SSO
NORAD 44883·PAYLOAD·🇧🇷 Brazil🇨🇳 China

打ち上げ Dec 20, 2019 から Taiyuan Satellite Launch Center

Loading…

次のパス (今後24時間)

TLE

最新Source: Space-Track

元期: Sep 14, 2026, 15:36 UTC

1 44883U 19093E   26257.65000145  .00000407  00000-0  58756-4 0  9998
2 44883  98.0115 325.1346 0001924  51.0547 309.0836 14.81526651364321

AllMySatでCBERS 4Aをリアルタイム追跡

Download on the App Store